Change the Weather History Date:

Thursday, November 3, 2011

  Actual Average Record
Temperature  
Mean Temperature 52 °F 53 °F  
Max Temperature 60 °F 64 °F 86 °F (1946)
Min Temperature 43 °F 42 °F 14 °F (1951)
Degree Days  
Heating Degree Days 13 12  
Month to date heating degree days 29 36  
Since 1 July heating degree days 297 303  
Cooling Degree Days 0 0  
Month to date cooling degree days 0 0  
Year to date cooling degree days 1698 1538  
Growing Degree Days 1 (Base 50)    
Moisture  
Dew Point 43 °F    
Average Humidity 68    
Maximum Humidity 93    
Minimum Humidity 43    
Precipitation  
Precipitation 0.48 in 0.13 in 1.59 in (1961)
Month to date precipitation 0.48 0.38  
Year to date precipitation 58.04 40.57  
Snow  
Snow 0.00 in 0.00 in 0.00 in (2002)
Month to date snowfall 0.0 0.0  
Since 1 July snowfall 0.0 0.1  
Since 1 September snowfall 0.0 0.1  
Snow Depth 0.00 in    
Sea Level Pressure  
Sea Level Pressure 29.87 in    
Wind  
Wind Speed 12 mph (WSW)    
Max Wind Speed 25 mph    
Max Gust Speed 31 mph    
Visibility 7 miles    
Events Rain    
T = Trace of Precipitation, MM = Missing Value Source: NWS Daily Summary

Daily Weather History Graph

Daily Weather History Graph

Search for Another Location

Airport or City:

Trip Planner

Search our weather history database for the weather conditions in past years. The results will help you decide how hot, cold, wet, or windy it might be!

Date:

Astronomy

Nov. 03, 2011 Rise Set
Actual Time 7:21 AM CDT 5:55 PM CDT
Civil Twilight 6:54 AM CDT 6:22 PM CDT
Nautical Twilight 6:23 AM CDT 6:53 PM CDT
Astronomical Twilight 5:52 AM CDT 7:23 PM CDT
Moon 2:11 PM CDT (11/3) 12:42 AM CDT (11/3)
Length of Visible Light 11h 28m
Length of Day
10h 34m
First Quarter, 60% of the Moon is Illuminated
Nov 3
First Quarter
Nov 10
Full
Nov 18
Last Quarter
Nov 25
New
Dec 2
First Quarter

Hourly Weather History & Observations

Time (CDT) Temp. Windchill Dew Point Humidity Pressure Visibility Wind Dir Wind Speed Gust Speed Precip Events Conditions
12:53 AM 55.0 °F - 37.0 °F 51% 29.94 in 10.0 mi SSE 11.5 mph - N/A   Clear
1:53 AM 57.9 °F - 36.0 °F 44% 29.90 in 10.0 mi South 15.0 mph 20.7 mph N/A   Partly Cloudy
2:53 AM 59.0 °F - 37.0 °F 44% 29.86 in 10.0 mi South 16.1 mph 27.6 mph N/A   Overcast
3:53 AM 60.1 °F - 39.9 °F 47% 29.81 in 10.0 mi South 20.7 mph 29.9 mph N/A   Overcast
4:31 AM 53.6 °F - 46.4 °F 77% 29.85 in 1.8 mi SSW 10.4 mph - N/A Rain Heavy Rain
4:40 AM 53.6 °F - 48.2 °F 82% 29.84 in 2.5 mi South 9.2 mph - 0.21 in Rain Heavy Rain
4:53 AM 53.1 °F - 48.0 °F 83% 29.84 in 3.0 mi SSW 6.9 mph - 0.28 in Rain Rain
5:53 AM 53.1 °F - 50.0 °F 89% 29.80 in 7.0 mi South 11.5 mph - 0.14 in Rain Light Rain
6:17 AM 53.6 °F - 51.8 °F 94% 29.81 in 10.0 mi South 9.2 mph - 0.00 in   Overcast
6:35 AM 53.6 °F - 51.8 °F 94% 29.80 in 6.0 mi SSW 5.8 mph - 0.00 in Rain Light Rain
6:53 AM 54.0 °F - 52.0 °F 93% 29.78 in 3.0 mi South 6.9 mph - 0.01 in Rain Light Rain
7:53 AM 55.9 °F - 52.0 °F 87% 29.79 in 10.0 mi SSW 11.5 mph 18.4 mph 0.02 in   Overcast
8:53 AM 50.0 °F - 46.0 °F 86% 29.83 in 10.0 mi WSW 16.1 mph 24.2 mph 0.00 in   Overcast
9:17 AM 50.0 °F - 44.6 °F 82% 29.83 in 10.0 mi WSW 17.3 mph 26.5 mph N/A   Overcast
9:28 AM 50.0 °F - 44.6 °F 82% 29.83 in 10.0 mi WSW 18.4 mph 25.3 mph N/A   Overcast
9:53 AM 48.9 °F - 42.1 °F 77% 29.84 in 10.0 mi WSW 20.7 mph 25.3 mph N/A   Overcast
10:53 AM 48.0 °F - 41.0 °F 77% 29.84 in 10.0 mi WSW 15.0 mph 20.7 mph N/A   Overcast
11:53 AM 46.9 °F - 39.0 °F 74% 29.84 in 10.0 mi WSW 18.4 mph 25.3 mph N/A   Overcast
12:53 PM 46.0 °F 39.6 °F 37.9 °F 73% 29.84 in 10.0 mi WSW 15.0 mph 24.2 mph N/A   Overcast
1:53 PM 46.0 °F 39.9 °F 37.9 °F 73% 29.84 in 10.0 mi WSW 13.8 mph - N/A   Overcast
2:53 PM 45.0 °F 37.6 °F 37.0 °F 74% 29.84 in 10.0 mi West 17.3 mph 25.3 mph N/A   Overcast
3:53 PM 45.0 °F 38.9 °F 37.0 °F 74% 29.86 in 10.0 mi West 12.7 mph 19.6 mph N/A   Overcast
4:39 PM 44.6 °F 38.8 °F 39.2 °F 81% 29.87 in 3.0 mi WSW 11.5 mph - N/A   Overcast
4:53 PM 44.1 °F 38.1 °F 39.9 °F 85% 29.87 in 3.0 mi WSW 11.5 mph - N/A   Overcast
5:00 PM 42.8 °F 36.6 °F 39.2 °F 87% 29.87 in 2.5 mi WSW 11.5 mph - N/A   Overcast
5:07 PM 42.8 °F 37.0 °F 41.0 °F 93% 29.87 in 4.0 mi WSW 10.4 mph - N/A   Overcast
5:53 PM 43.0 °F 36.8 °F 39.9 °F 89% 29.89 in 3.0 mi WSW 11.5 mph - N/A   Overcast
6:10 PM 42.8 °F 37.5 °F 41.0 °F 93% 29.89 in 2.5 mi WSW 9.2 mph - N/A   Overcast
6:17 PM 42.8 °F 37.5 °F 41.0 °F 93% 29.89 in 3.0 mi WSW 9.2 mph - N/A   Overcast
6:53 PM 44.1 °F 39.0 °F 42.1 °F 93% 29.91 in 3.0 mi West 9.2 mph - 0.01 in   Overcast
7:53 PM 46.0 °F 41.4 °F 43.0 °F 89% 29.93 in 6.0 mi West 9.2 mph - 0.01 in   Overcast
8:42 PM 46.4 °F 43.5 °F 44.6 °F 93% 29.94 in 2.5 mi West 5.8 mph - N/A   Overcast
8:53 PM 46.0 °F 43.1 °F 44.1 °F 93% 29.94 in 3.0 mi WNW 5.8 mph - N/A   Overcast
9:53 PM 46.0 °F 43.1 °F 43.0 °F 89% 29.97 in 10.0 mi North 5.8 mph - N/A   Overcast
10:18 PM 46.4 °F 43.5 °F 42.8 °F 87% 29.98 in 10.0 mi NNW 5.8 mph - N/A   Overcast
10:46 PM 46.4 °F 42.4 °F 44.6 °F 93% 29.99 in 10.0 mi NNW 8.1 mph - N/A   Overcast
10:53 PM 46.9 °F - 44.1 °F 90% 29.99 in 9.0 mi North 11.5 mph - N/A   Overcast
11:53 PM 46.4 °F 42.9 °F 44.6 °F 93% 30.00 in 7.0 mi NW 6.9 mph - N/A   Overcast